Flag for Canada Weather past 2 weeks in Chatham-Kent, Ontario, Canada

Now
42 °F

Quite cool.


Feels Like: 39 °F
Forecast: 36 / 46 °F
Wind: 5 mph from Southeast

Location: Erieau


UV Index: 5 (Moderate)

Visibility: N/A


Pressure: 30.15 "Hg

Humidity: 59%

Dew point: 28 °F

Location of Chatham-KentLocation

Historic Weather in Chatham-Kent

°F

Chatham-Kent temperature yesterday

Maximum temperature yesterday: 49 °F (at 5:00 PM)
Minimum temperature yesterday: 37 °F (at 7:00 AM)
Average temperature yesterday: 42 °F

Past Weeks' High & Low Weather Summary

 TemperatureHumidityPressure
High55 °F (Apr 21, 6:00 PM)100% (Apr 15, 7:00 AM)30.50 "Hg (Apr 15, 7:00 AM)
Low27 °F (Apr 16, 5:00 AM)26% (Apr 23, 6:00 PM)29.52 "Hg (Apr 14, 8:00 AM)
Average42 °F71%30.05 "Hg
* Reported Apr 9 2:00 PM — Apr 24 2:00 PM, Chatham-Kent, Weather by CustomWeather, © 2014

Note: Actual official high and low records may vary slightly from our data, if they occured in-between our weather recording intervals... More about our weather records

Advertising

Historic Weather Conditions — Data for Previous 24 hours

 ConditionsComfort  
Time TempWeatherWind HumidityBarometerVisibility
2:00 PM
Apr 24
42 °FQuite cool.5 mph59%30.15 "HgN/A
1:00 PM41 °FQuite cool.6 mph61%30.17 "HgN/A
12:00 PM40 °FQuite cool.6 mph59%30.20 "HgN/A
11:00 AM40 °FChilly.6 mph52%30.21 "HgN/A
10:00 AM41 °FQuite cool.3 mph53%30.20 "HgN/A
9:00 AM42 °FQuite cool.5 mph50%30.19 "HgN/A
8:00 AM38 °FChilly.5 mph49%30.19 "HgN/A
7:00 AM39 °FChilly.5 mph49%30.16 "HgN/A
6:00 AM38 °FChilly.5 mph43%30.16 "HgN/A
5:00 AM38 °FChilly.2 mph45%30.15 "HgN/A
4:00 AM39 °FChilly.3 mph46%30.13 "HgN/A
3:00 AM40 °FChilly.7 mph43%30.12 "HgN/A
2:00 AM40 °FChilly.6 mph46%30.14 "HgN/A
1:00 AM40 °FChilly.7 mph37%30.14 "HgN/A
12:00 AM39 °FChilly.10 mph38%30.13 "HgN/A
11:00 PM
Apr 23
41 °FQuite cool.8 mph29%30.14 "HgN/A
10:00 PM42 °FQuite cool.6 mph28%30.13 "HgN/A
9:00 PM43 °FQuite cool.3 mph30%30.12 "HgN/A
8:00 PM45 °FCool.6 mph28%30.10 "HgN/A
7:00 PM47 °FCool.9 mph28%30.09 "HgN/A
6:00 PM49 °FCool.8 mph26%30.07 "HgN/A
5:00 PM49 °FCool.9 mph28%30.07 "HgN/A
4:00 PM49 °FCool.9 mph29%30.07 "HgN/A
3:00 PM48 °FCool.8 mph36%30.07 "HgN/A
Weather by CustomWeather, © 2014

See weather overview